Location: Exeidioux
(45.6312°N, 1.6819°E)
Time: 19:48:01
(UTC+00:00)

Cosmos 2333 Rocket - Pass Details

Date: 03 March 2021
Orbit: 837 x 864 km, 70.8° (Epoch: 13 April)

Event Time Altitude Azimuth Distance (km) Brightness Sun altitude
Rises 20:29:54 0° 220° (SW) 3,390 5.6 -29.4°
Reaches altitude 10° 20:32:23 10° 226° (SW) 2,462 4.8 -29.8°
Maximum altitude 20:37:54 51° 302° (WNW) 1,057 2.9 -30.7°
Drops below altitude 10° 20:43:29 10° 18° (NNE) 2,495 4.7 -31.6°
Sets 20:46:02 0° 24° (NNE) 3,439 5.4 -32.0°
